| time (UTC) | temp F | wind direction | speed knots | gust knots | rain 1hr in | rain 24hr in | rain mn in | humidity % | barometer mb |
| 20260505151534 | 75 | 271 | 2.6 | 6.1 | 0.00 | 0.00 | 0.00 | 56 | 1012.2 |
| 20260505124537 | 67 | 216 | 0.9 | 5.2 | 0.00 | 0.00 | 0.00 | 67 | 1012.4 |
| 20260505123031 | 66 | 283 | 0.9 | 3.5 | 0.00 | 0.00 | 0.00 | 67 | 1012.3 |
| 20260505121533 | 65 | 248 | 2.6 | 5.2 | 0.00 | 0.00 | 0.00 | 69 | 1012.3 |
| 20260505120033 | 64 | 0 | 0.0 | 2.6 | 0.00 | 0.00 | 0.00 | 70 | 1012.3 |
| 20260505114533 | 63 | 0 | 0.9 | 3.5 | 0.00 | 0.00 | 0.00 | 70 | 1012.3 |
| 20260505113029 | 62 | 0 | 0.9 | 3.5 | 0.00 | 0.00 | 0.00 | 72 | 1012.2 |
| 20260505111536 | 62 | 136 | 0.0 | 2.6 | 0.00 | 0.00 | 0.00 | 73 | 1012.1 |
| 20260505101534 | 59 | 162 | 0.0 | 3.5 | 0.00 | 0.00 | 0.00 | 74 | 1011.3 |
| 20260505100032 | 59 | 0 | 0.0 | 1.7 | 0.00 | 0.00 | 0.00 | 74 | 1011.3 |
| 20260505094532 | 60 | 0 | 0.0 | 1.7 | 0.00 | 0.00 | 0.00 | 73 | 1011.2 |
| 20260505093037 | 60 | 271 | 0.9 | 3.5 | 0.00 | 0.00 | 0.00 | 73 | 1011.2 |
| 20260505091538 | 61 | 297 | 0.0 | 3.5 | 0.00 | 0.00 | 0.00 | 72 | 1011.0 |
| 20260505090031 | 61 | 245 | 0.0 | 2.6 | 0.00 | 0.00 | 0.00 | 72 | 1011.0 |
| 20260505084533 | 61 | 0 | 0.0 | 2.6 | 0.00 | 0.00 | 0.00 | 72 | 1010.9 |
| 20260505083033 | 61 | 247 | 0.0 | 1.7 | 0.00 | 0.00 | 0.00 | 72 | 1010.8 |
| 20260505081537 | 61 | 0 | 0.0 | 3.5 | 0.00 | 0.00 | 0.00 | 73 | 1011.1 |
| 20260505080032 | 61 | 269 | 0.0 | 2.6 | 0.00 | 0.00 | 0.00 | 74 | 1011.0 |
| 20260505074530 | 61 | 165 | 0.0 | 3.5 | 0.00 | 0.00 | 0.00 | 74 | 1011.1 |
| 20260505073031 | 61 | 301 | 0.9 | 6.1 | 0.00 | 0.00 | 0.00 | 74 | 1010.9 |
| 20260505071529 | 61 | 263 | 0.0 | 2.6 | 0.00 | 0.00 | 0.00 | 75 | 1010.9 |
| 20260505070038 | 62 | 266 | 0.0 | 3.5 | 0.00 | 0.00 | 0.00 | 74 | 1010.8 |
| 20260505064532 | 62 | 265 | 0.9 | 2.6 | 0.00 | 0.00 | 0.00 | 74 | 1010.8 |
| 20260505063029 | 62 | 0 | 0.0 | 2.6 | 0.00 | 0.00 | 0.00 | 74 | 1010.9 |
| 20260505061545 | 62 | 200 | 0.9 | 2.6 | 0.00 | 0.00 | 0.00 | 74 | 1010.9 |
| 20260505060030 | 62 | 272 | 0.9 | 4.3 | 0.00 | 0.00 | 0.00 | 74 | 1010.9 |
| 20260505054532 | 62 | 251 | 0.9 | 3.5 | 0.00 | 0.00 | 0.00 | 74 | 1010.9 |
| 20260505053039 | 61 | 148 | 0.9 | 3.5 | 0.00 | 0.00 | 0.00 | 74 | 1010.9 |
| 20260505051553 | 60 | 0 | 0.0 | 4.3 | 0.00 | 0.00 | 0.00 | 75 | 1010.8 |
| 20260505041533 | 61 | 0 | 0.9 | 2.6 | 0.00 | 0.00 | 0.00 | 72 | 1010.8 |
| 20260505040033 | 61 | 215 | 0.0 | 1.7 | 0.00 | 0.00 | 0.00 | 71 | 1010.9 |
| 20260505034532 | 61 | 0 | 0.9 | 3.5 | 0.00 | 0.00 | 0.00 | 70 | 1010.9 |
| 20260505033032 | 62 | 220 | 0.0 | 4.3 | 0.00 | 0.00 | 0.00 | 69 | 1010.8 |
| 20260505031531 | 62 | 240 | 0.9 | 3.5 | 0.00 | 0.00 | 0.00 | 69 | 1010.6 |
| 20260505030032 | 62 | 200 | 0.9 | 4.3 | 0.00 | 0.00 | 0.00 | 67 | 1010.6 |
| 20260505024532 | 62 | 201 | 1.7 | 3.5 | 0.00 | 0.00 | 0.00 | 67 | 1010.7 |
| 20260505023033 | 63 | 201 | 0.9 | 3.5 | 0.00 | 0.00 | 0.00 | 65 | 1010.8 |
| 20260505021533 | 62 | 186 | 1.7 | 4.3 | 0.00 | 0.00 | 0.00 | 63 | 1010.8 |
| 20260505020030 | 62 | 164 | 1.7 | 3.5 | 0.00 | 0.00 | 0.00 | 62 | 1010.7 |
| 20260505014532 | 62 | 191 | 0.9 | 2.6 | 0.00 | 0.00 | 0.00 | 60 | 1010.7 |
| 20260505013031 | 62 | 197 | 0.9 | 2.6 | 0.00 | 0.00 | 0.00 | 59 | 1010.6 |
| 20260505011534 | 63 | 184 | 0.9 | 2.6 | 0.00 | 0.00 | 0.00 | 57 | 1010.6 |
| 20260505010035 | 63 | 203 | 0.9 | 1.7 | 0.00 | 0.00 | 0.00 | 55 | 1010.5 |
| 20260505004531 | 64 | 172 | 0.9 | 1.7 | 0.00 | 0.00 | 0.00 | 54 | 1010.4 |
| 20260505003029 | 65 | 193 | 0.9 | 1.7 | 0.00 | 0.00 | 0.00 | 53 | 1010.4 |
| 20260505001528 | 66 | 195 | 0.9 | 2.6 | 0.00 | 0.00 | 0.00 | 51 | 1010.4 |
| 20260505000038 | 67 | 192 | 0.9 | 2.6 | 0.00 | 0.00 | 0.00 | 50 | 1010.4 |
| 20260504234535 | 68 | 193 | 0.9 | 5.2 | 0.00 | 0.00 | 0.00 | 48 | 1010.4 |
| 20260504233031 | 70 | 244 | 0.9 | 6.1 | 0.00 | 0.00 | 0.00 | 46 | 1010.3 |
| 20260504231531 | 71 | 195 | 1.7 | 4.3 | 0.00 | 0.00 | 0.00 | 44 | 1010.2 |
| 20260504230029 | 72 | 248 | 2.6 | 5.2 | 0.00 | 0.00 | 0.00 | 40 | 1010.1 |
| 20260504224532 | 72 | 264 | 0.9 | 4.3 | 0.00 | 0.00 | 0.00 | 41 | 1010.1 |
| 20260504223032 | 73 | 207 | 2.6 | 7.0 | 0.00 | 0.00 | 0.00 | 39 | 1010.1 |
| 20260504221533 | 74 | 289 | 1.7 | 5.2 | 0.00 | 0.00 | 0.00 | 39 | 1010.0 |
| 20260504220030 | 75 | 207 | 1.7 | 6.1 | 0.00 | 0.00 | 0.00 | 39 | 1010.2 |
| 20260504214533 | 76 | 257 | 0.9 | 6.1 | 0.00 | 0.00 | 0.00 | 41 | 1010.2 |
| 20260504213028 | 75 | 210 | 1.7 | 6.1 | 0.00 | 0.00 | 0.00 | 39 | 1010.2 |
| 20260504211536 | 75 | 255 | 1.7 | 4.3 | 0.00 | 0.00 | 0.00 | 39 | 1010.3 |
| 20260504210040 | 75 | 252 | 1.7 | 9.6 | 0.00 | 0.00 | 0.00 | 39 | 1010.2 |
| 20260504204532 | 75 | 266 | 2.6 | 5.2 | 0.00 | 0.00 | 0.00 | 40 | 1010.3 |
| 20260504203049 | 74 | 256 | 1.7 | 6.1 | 0.00 | 0.00 | 0.00 | 40 | 1010.3 |
| 20260504201532 | 74 | 253 | 1.7 | 6.1 | 0.00 | 0.00 | 0.00 | 40 | 1010.7 |
| 20260504200033 | 75 | 261 | 2.6 | 7.8 | 0.00 | 0.00 | 0.00 | 37 | 1011.0 |
| 20260504194533 | 74 | 18 | 2.6 | 9.6 | 0.00 | 0.00 | 0.00 | 40 | 1011.2 |
| 20260504193031 | 74 | 289 | 2.6 | 6.1 | 0.00 | 0.00 | 0.00 | 39 | 1011.5 |
| 20260504191530 | 73 | 283 | 2.6 | 7.8 | 0.00 | 0.00 | 0.00 | 39 | 1011.6 |
| 20260504190030 | 74 | 68 | 0.9 | 6.1 | 0.00 | 0.00 | 0.00 | 40 | 1011.6 |
| 20260504184534 | 73 | 165 | 3.5 | 6.1 | 0.00 | 0.00 | 0.00 | 39 | 1011.7 |
| 20260504183034 | 73 | 298 | 1.7 | 6.1 | 0.00 | 0.00 | 0.00 | 40 | 1011.9 |
| 20260504181530 | 72 | 309 | 2.6 | 7.8 | 0.00 | 0.00 | 0.00 | 39 | 1012.2 |
| 20260504180032 | 73 | 267 | 1.7 | 7.0 | 0.00 | 0.00 | 0.00 | 41 | 1012.3 |
| 20260504174532 | 72 | 272 | 1.7 | 6.1 | 0.00 | 0.00 | 0.00 | 40 | 1012.4 |
| 20260504173035 | 72 | 259 | 1.7 | 4.3 | 0.00 | 0.00 | 0.00 | 38 | 1012.6 |
| 20260504171531 | 71 | 252 | 1.7 | 7.0 | 0.00 | 0.00 | 0.00 | 43 | 1013.0 |